TimeMST,TemperatureF,Dew PointF,Humidity,Sea Level PressureIn,VisibilityMPH,Wind Direction,Wind SpeedMPH,Gust SpeedMPH,PrecipitationIn,Events,Conditions,WindDirDegrees,DateUTC
12:53 AM,43.0,30.0,60,29.94,10.0,West,5.8,-,N/A,,Overcast,260,2012-12-01 07:53:00
1:53 AM,43.0,28.9,58,29.94,10.0,NW,4.6,-,N/A,,Mostly Cloudy,310,2012-12-01 08:53:00
2:53 AM,45.0,28.9,53,29.95,10.0,WSW,9.2,-,N/A,,Overcast,250,2012-12-01 09:53:00
3:53 AM,46.9,28.0,48,29.96,10.0,WSW,9.2,-,N/A,,Overcast,250,2012-12-01 10:53:00
4:53 AM,42.8,28.4,57,30.06,10.0,NW,4.6,-,N/A,,Overcast,310,2012-12-01 11:53:00
5:53 AM,36.0,26.1,67,30.05,10.0,Calm,Calm,-,N/A,,Mostly Cloudy,0,2012-12-01 12:53:00
6:53 AM,37.0,26.1,65,30.09,10.0,Calm,Calm,-,N/A,,Partly Cloudy,0,2012-12-01 13:53:00
7:53 AM,33.8,26.6,75,30.09,10.0,Calm,Calm,-,N/A,,Clear,0,2012-12-01 14:53:00
8:53 AM,39.9,28.9,65,30.12,10.0,Calm,Calm,-,N/A,,Clear,0,2012-12-01 15:53:00
9:53 AM,50.0,28.9,44,30.06,10.0,SW,16.1,-,N/A,,Clear,230,2012-12-01 16:53:00
10:53 AM,54.0,28.9,38,30.00,10.0,West,15.0,-,N/A,,Clear,260,2012-12-01 17:53:00
11:53 AM,54.0,28.0,37,29.99,10.0,West,23.0,26.5,N/A,,Scattered Clouds,260,2012-12-01 18:53:00
12:53 PM,54.0,28.0,37,29.97,10.0,West,15.0,20.7,N/A,,Clear,270,2012-12-01 19:53:00
1:53 PM,54.0,27.0,35,29.95,10.0,West,12.7,-,N/A,,Clear,270,2012-12-01 20:53:00
2:53 PM,55.9,27.0,33,29.96,10.0,West,15.0,-,N/A,,Clear,270,2012-12-01 21:53:00
3:53 PM,52.0,26.1,37,29.98,10.0,West,11.5,-,N/A,,Clear,270,2012-12-01 22:53:00
4:53 PM,43.0,24.1,47,30.04,10.0,SW,6.9,-,N/A,,Clear,220,2012-12-01 23:53:00
5:53 PM,36.0,24.1,62,30.11,10.0,SSE,3.5,-,N/A,,Clear,160,2012-12-02 00:53:00
6:53 PM,32.0,23.0,69,30.13,10.0,Calm,Calm,-,N/A,,Clear,0,2012-12-02 01:53:00
7:53 PM,32.0,23.0,69,30.16,10.0,Calm,Calm,-,N/A,,Clear,0,2012-12-02 02:53:00
8:53 PM,30.0,21.9,72,30.16,10.0,ESE,3.5,-,N/A,,Clear,110,2012-12-02 03:53:00
9:53 PM,27.0,21.0,78,30.12,10.0,ESE,4.6,-,N/A,,Clear,120,2012-12-02 04:53:00
10:53 PM,25.0,19.9,81,30.11,10.0,Calm,Calm,-,N/A,,Clear,0,2012-12-02 05:53:00
11:53 PM,26.1,21.0,81,30.10,10.0,Calm,Calm,-,N/A,,Clear,0,2012-12-02 06:53:00